JAL139 RJTT-RJOO

Flight info

Callsign JAL139
Flight time 0h 57m
Altitude 32000
Route LAXAS Y56 TOHME Y54 KOHWA Y546 AGPUK MIRAI ABENO IKOMA
Aircraft A359/H-SDE2E3GHIJ3J4J5LM1ORWXY/LB1D1

Departure

Time 2026-05-01 12:57
Airport Tokyo Haneda International Airport (RJTT)

Arrival

Time 2026-05-01 13:55
Airport Osaka Itami International Airport (RJOO)
Time Latitude Longitude Altitude Speed Heading
2026-05-01 12:24 35.54782 139.78265 30 ft 0 kts 54°
2026-05-01 12:44 35.54775 139.78254 30 ft 4 kts 54°
2026-05-01 12:44 35.54745 139.78206 28 ft 4 kts 32°
2026-05-01 12:45 35.54697 139.78212 29 ft 4 kts 329°
2026-05-01 12:45 35.54692 139.78216 29 ft 0 kts 330°
2026-05-01 12:50 35.54708 139.78205 30 ft 5 kts 330°
2026-05-01 12:51 35.54746 139.78178 28 ft 8 kts 330°
2026-05-01 12:51 35.54808 139.78134 30 ft 12 kts 330°
2026-05-01 12:51 35.54938 139.77918 28 ft 15 kts 314°
2026-05-01 12:52 35.55000 139.77870 27 ft 16 kts 330°
2026-05-01 12:52 35.55222 139.77713 28 ft 18 kts 330°
2026-05-01 12:52 35.55337 139.77632 28 ft 21 kts 328°
2026-05-01 12:53 35.55561 139.77474 29 ft 18 kts 330°
2026-05-01 12:53 35.55626 139.77428 28 ft 12 kts 330°
2026-05-01 12:53 35.55706 139.77371 27 ft 10 kts 329°
2026-05-01 12:54 35.55709 139.77368 28 ft 0 kts 330°
2026-05-01 12:54 35.55756 139.77301 27 ft 10 kts 280°
2026-05-01 12:54 35.55734 139.77246 28 ft 0 kts 218°
2026-05-01 12:55 35.55710 139.77224 29 ft 9 kts 217°
2026-05-01 12:55 35.55655 139.77187 30 ft 9 kts 197°
2026-05-01 12:56 35.55588 139.77200 31 ft 11 kts 153°
2026-05-01 12:56 35.55573 139.77210 30 ft 0 kts 152°
2026-05-01 12:56 35.55571 139.77212 30 ft 3 kts 152°
2026-05-01 12:56 35.55476 139.77276 29 ft 38 kts 150°
2026-05-01 12:57 35.55011 139.77606 28 ft 114 kts 150°
2026-05-01 12:57 35.53244 139.78925 1017 ft 154 kts 155°
2026-05-01 12:57 35.52309 139.79620 1790 ft 156 kts 158°
2026-05-01 12:58 35.51312 139.80283 2204 ft 175 kts 159°
2026-05-01 12:58 35.50225 139.81016 2836 ft 179 kts 155°
2026-05-01 12:58 35.49141 139.81776 3476 ft 183 kts 158°
2026-05-01 12:59 35.46615 139.83521 4153 ft 236 kts 157°
2026-05-01 12:59 35.45110 139.84576 4520 ft 262 kts 155°
2026-05-01 12:59 35.41649 139.84795 5871 ft 252 kts 218°
2026-05-01 13:00 35.38919 139.82133 7632 ft 256 kts 225°
2026-05-01 13:00 35.37542 139.80745 8692 ft 257 kts 224°
2026-05-01 13:01 35.34728 139.77981 10573 ft 268 kts 223°
2026-05-01 13:01 35.33210 139.76503 11014 ft 290 kts 223°
2026-05-01 13:01 35.29835 139.73213 12084 ft 323 kts 224°
2026-05-01 13:02 35.28115 139.71401 12927 ft 330 kts 225°
2026-05-01 13:07 35.02163 139.18394 27566 ft 398 kts 258°
2026-05-01 13:07 35.01604 139.15073 28129 ft 401 kts 258°
2026-05-01 13:07 35.01046 139.11769 28662 ft 405 kts 258°
2026-05-01 13:08 35.00474 139.08391 29176 ft 409 kts 258°
2026-05-01 13:08 34.99890 139.04950 29373 ft 419 kts 258°
2026-05-01 13:08 34.99296 139.01447 29754 ft 424 kts 258°
2026-05-01 13:08 34.98837 138.97887 30190 ft 426 kts 264°
2026-05-01 13:09 34.98578 138.94274 30593 ft 429 kts 264°
2026-05-01 13:09 34.98362 138.90676 30985 ft 432 kts 265°
2026-05-01 13:09 34.98167 138.87012 31335 ft 436 kts 265°
2026-05-01 13:09 34.97978 138.83307 31520 ft 439 kts 266°
2026-05-01 13:10 34.97791 138.79581 31567 ft 441 kts 266°
2026-05-01 13:10 34.97407 138.72112 31559 ft 442 kts 266°
2026-05-01 13:11 34.97009 138.64641 31564 ft 442 kts 266°
2026-05-01 13:11 34.96605 138.57218 31564 ft 436 kts 266°
2026-05-01 13:12 34.96203 138.49913 31572 ft 435 kts 266°
2026-05-01 13:12 34.95792 138.42511 31574 ft 440 kts 266°
2026-05-01 13:13 34.95376 138.35105 31578 ft 437 kts 266°
2026-05-01 13:13 34.94960 138.27775 31592 ft 436 kts 266°
2026-05-01 13:14 34.94536 138.20405 31590 ft 436 kts 267°
2026-05-01 13:14 34.94112 138.13039 31608 ft 436 kts 267°
2026-05-01 13:15 34.93682 138.05672 31605 ft 435 kts 267°
2026-05-01 13:15 34.93244 137.98325 31609 ft 433 kts 268°
2026-05-01 13:16 34.92809 137.91108 31622 ft 428 kts 268°
2026-05-01 13:16 34.92371 137.83875 31630 ft 427 kts 268°
2026-05-01 13:17 34.91414 137.69523 31648 ft 424 kts 264°
2026-05-01 13:18 34.88906 137.59175 31613 ft 429 kts 255°
2026-05-01 13:18 34.86849 137.52359 31654 ft 428 kts 255°
2026-05-01 13:19 34.84778 137.45565 31656 ft 428 kts 255°
2026-05-01 13:20 34.81837 137.35339 31662 ft 426 kts 256°
2026-05-01 13:20 34.79927 137.28597 31661 ft 424 kts 256°
2026-05-01 13:21 34.77017 137.18442 31663 ft 424 kts 256°
2026-05-01 13:21 34.75066 137.11681 31650 ft 423 kts 256°
2026-05-01 13:22 34.74102 137.08371 31027 ft 407 kts 256°
2026-05-01 13:22 34.73163 137.05154 29791 ft 403 kts 257°
2026-05-01 13:22 34.72239 137.01967 28007 ft 408 kts 258°
2026-05-01 13:22 34.71296 136.98693 26591 ft 412 kts 258°
2026-05-01 13:23 34.70349 136.95422 26056 ft 407 kts 258°
2026-05-01 13:23 34.69414 136.92206 25557 ft 400 kts 258°
2026-05-01 13:23 34.68487 136.89031 24967 ft 397 kts 258°
2026-05-01 13:23 34.67569 136.85886 24355 ft 394 kts 258°
2026-05-01 13:24 34.66656 136.82763 23740 ft 391 kts 259°
2026-05-01 13:24 34.65748 136.79653 23112 ft 389 kts 259°
2026-05-01 13:24 34.64859 136.76610 22382 ft 386 kts 259°
2026-05-01 13:25 34.63081 136.70549 21213 ft 377 kts 259°
2026-05-01 13:25 34.62204 136.67560 20609 ft 374 kts 259°
2026-05-01 13:25 34.61336 136.64598 19983 ft 373 kts 259°
2026-05-01 13:25 34.60469 136.61641 19340 ft 371 kts 259°
2026-05-01 13:26 34.59604 136.58694 18725 ft 369 kts 259°
2026-05-01 13:26 34.58743 136.55765 18049 ft 368 kts 258°
2026-05-01 13:26 34.57895 136.52884 17407 ft 367 kts 258°
2026-05-01 13:26 34.57037 136.49972 16758 ft 366 kts 258°
2026-05-01 13:27 34.56182 136.47075 16122 ft 364 kts 258°
2026-05-01 13:27 34.55330 136.44190 15472 ft 363 kts 257°
2026-05-01 13:27 34.53631 136.38428 14219 ft 362 kts 257°
2026-05-01 13:28 34.52017 136.32913 13141 ft 353 kts 260°
2026-05-01 13:28 34.51465 136.30072 12628 ft 347 kts 265°
2026-05-01 13:29 34.50621 136.24288 11884 ft 350 kts 267°
2026-05-01 13:29 34.49893 136.18507 11061 ft 344 kts 267°
2026-05-01 13:30 34.48853 136.08024 10082 ft 280 kts 284°
2026-05-01 13:31 34.49727 136.03718 9313 ft 251 kts 290°
2026-05-01 13:31 34.51367 135.98003 8203 ft 235 kts 292°
2026-05-01 13:32 34.52470 135.94238 7652 ft 242 kts 291°
2026-05-01 13:33 34.54091 135.88507 6797 ft 238 kts 292°
2026-05-01 13:33 34.55169 135.84716 6274 ft 238 kts 291°
2026-05-01 13:34 34.56209 135.80957 5709 ft 231 kts 290°
2026-05-01 13:34 34.57163 135.77427 5310 ft 210 kts 290°
2026-05-01 13:35 34.58056 135.74157 4863 ft 198 kts 291°
2026-05-01 13:35 34.58479 135.72615 4759 ft 189 kts 291°
2026-05-01 13:35 34.59309 135.69602 4622 ft 189 kts 290°
2026-05-01 13:36 34.59727 135.68099 4538 ft 187 kts 291°
2026-05-01 13:36 34.60140 135.66625 4444 ft 180 kts 292°
2026-05-01 13:36 34.61496 135.64137 4313 ft 179 kts 311°
2026-05-01 13:37 34.62376 135.63076 4187 ft 179 kts 314°
2026-05-01 13:37 34.63274 135.62045 3969 ft 174 kts 311°
2026-05-01 13:37 34.64103 135.61015 3735 ft 173 kts 311°
2026-05-01 13:37 34.64951 135.59994 3461 ft 170 kts 312°
2026-05-01 13:38 34.66568 135.58050 2957 ft 157 kts 310°
2026-05-01 13:38 34.67331 135.57129 2746 ft 152 kts 310°
2026-05-01 13:38 34.68053 135.56261 2551 ft 140 kts 310°
2026-05-01 13:39 34.68728 135.55446 2368 ft 136 kts 309°
2026-05-01 13:39 34.69388 135.54647 2186 ft 136 kts 308°
2026-05-01 13:39 34.70063 135.53831 1999 ft 138 kts 308°
2026-05-01 13:39 34.70744 135.53009 1804 ft 135 kts 308°
2026-05-01 13:40 34.71385 135.52239 1609 ft 125 kts 307°
2026-05-01 13:40 34.71988 135.51510 1459 ft 122 kts 307°
2026-05-01 13:40 34.72591 135.50777 1302 ft 123 kts 308°
2026-05-01 13:40 34.73202 135.50040 1116 ft 124 kts 308°
2026-05-01 13:41 34.73805 135.49312 957 ft 121 kts 308°
2026-05-01 13:41 34.74400 135.48595 801 ft 119 kts 307°
2026-05-01 13:41 34.74981 135.47882 694 ft 120 kts 309°
2026-05-01 13:41 34.75582 135.47171 573 ft 122 kts 306°
2026-05-01 13:42 34.76175 135.46429 384 ft 121 kts 309°
2026-05-01 13:42 34.76771 135.45723 233 ft 121 kts 309°
2026-05-01 13:42 34.77385 135.44982 68 ft 126 kts 308°
2026-05-01 13:42 34.77976 135.44293 258 ft 123 kts 308°
2026-05-01 13:43 34.78660 135.43425 1032 ft 156 kts 308°
2026-05-01 13:43 34.79308 135.42348 2285 ft 156 kts 293°
2026-05-01 13:43 34.79364 135.41031 2890 ft 173 kts 255°
2026-05-01 13:43 34.78440 135.39861 3144 ft 221 kts 213°
2026-05-01 13:44 34.76814 135.39538 3594 ft 251 kts 187°
2026-05-01 13:44 34.75054 135.39607 4194 ft 261 kts 184°
2026-05-01 13:44 34.73208 135.39801 4724 ft 270 kts 180°
2026-05-01 13:44 34.71327 135.40039 4955 ft 273 kts 180°
2026-05-01 13:45 34.69439 135.40271 4993 ft 273 kts 180°
2026-05-01 13:45 34.67519 135.40508 4987 ft 286 kts 179°
2026-05-01 13:45 34.65556 135.41188 4997 ft 302 kts 158°
2026-05-01 13:45 34.63691 135.42399 4998 ft 305 kts 152°
2026-05-01 13:46 34.61910 135.43803 5020 ft 306 kts 144°
2026-05-01 13:46 34.60254 135.45383 5027 ft 307 kts 142°
2026-05-01 13:46 34.58596 135.47007 5003 ft 306 kts 142°
2026-05-01 13:46 34.56947 135.48640 5003 ft 305 kts 142°
2026-05-01 13:47 34.55373 135.50366 4960 ft 306 kts 134°
2026-05-01 13:47 34.54235 135.52536 4546 ft 305 kts 108°
2026-05-01 13:47 34.54034 135.54996 4270 ft 286 kts 74°
2026-05-01 13:47 34.54793 135.57082 4094 ft 260 kts 47°
2026-05-01 13:48 34.55887 135.58743 4030 ft 247 kts 40°
2026-05-01 13:48 34.56960 135.60347 4012 ft 251 kts 46°
2026-05-01 13:48 34.57969 135.62072 4005 ft 250 kts 45°
2026-05-01 13:48 34.59136 135.63568 4009 ft 237 kts 22°
2026-05-01 13:49 34.60624 135.63970 4014 ft 211 kts 343°
2026-05-01 13:49 34.61938 135.63328 4006 ft 202 kts 322°
2026-05-01 13:49 34.63025 135.62264 3971 ft 201 kts 313°
2026-05-01 13:49 34.64019 135.61090 3765 ft 199 kts 313°
2026-05-01 13:50 34.65008 135.59921 3469 ft 198 kts 312°
2026-05-01 13:50 34.65976 135.58758 3165 ft 198 kts 312°
2026-05-01 13:50 34.66930 135.57610 2864 ft 186 kts 312°
2026-05-01 13:50 34.67807 135.56557 2633 ft 168 kts 311°
2026-05-01 13:51 34.68594 135.55609 2415 ft 151 kts 310°
2026-05-01 13:51 34.69299 135.54759 2229 ft 137 kts 309°
2026-05-01 13:51 34.69971 135.53946 2043 ft 137 kts 308°
2026-05-01 13:51 34.70652 135.53119 1822 ft 140 kts 308°
2026-05-01 13:52 34.71345 135.52281 1633 ft 142 kts 308°
2026-05-01 13:52 34.72052 135.51428 1431 ft 144 kts 308°
2026-05-01 13:52 34.72734 135.50607 1247 ft 135 kts 308°
2026-05-01 13:52 34.73372 135.49838 1063 ft 124 kts 308°
2026-05-01 13:53 34.73977 135.49106 910 ft 123 kts 308°
2026-05-01 13:53 34.75182 135.47654 619 ft 121 kts 306°
2026-05-01 13:53 34.75793 135.46937 496 ft 124 kts 308°
2026-05-01 13:54 34.76383 135.46180 304 ft 122 kts 307°
2026-05-01 13:54 34.76983 135.45475 174 ft 121 kts 309°
2026-05-01 13:54 34.77576 135.44753 57 ft 120 kts 306°
2026-05-01 13:54 34.78064 135.44161 54 ft 64 kts 315°
2026-05-01 13:55 34.78244 135.43944 51 ft 28 kts 315°
2026-05-01 13:55 34.78389 135.43786 54 ft 29 kts 328°
2026-05-01 13:55 34.78579 135.43702 51 ft 30 kts 346°
2026-05-01 13:55 34.78729 135.43730 51 ft 20 kts 40°
2026-05-01 13:56 34.78820 135.43825 50 ft 17 kts 42°
2026-05-01 13:56 34.78876 135.43890 48 ft 11 kts 50°
2026-05-01 13:56 34.78932 135.43973 51 ft 15 kts 41°
2026-05-01 13:56 34.78992 135.44013 52 ft 0 kts 23°
2026-05-01 13:57 34.79007 135.44020 52 ft 2 kts 22°
2026-05-01 13:57 34.79016 135.44025 53 ft 0 kts 22°
2026-05-01 13:57 34.79017 135.44025 53 ft 0 kts 22°